Main page
METAR-TAF:

METAR-TAF

Airports :

Ardabil Airport

Ardabil, Iran

latitude: 38-19-35N, longitude: 048-25-28E, elevation: 1315 m

Current weather observation

The report was made 1 hour and 18 minutes ago, at 19:51 UTC
Wind 4 kt from the East/Southeast
Temperature 4°C
Humidity 100%
Pressure 1014 hPa
Visibility: 6000 m
Overcast at a height of 700 ft

METAR: OITL 211951Z 12004KT 6000 OVC007 04/04 Q1014

Time: 00:39 (21:09 UTC)


TAF: missing

Weather observations and forecasts of more than 4000 airports (METAR and TAF reports).

The available stations are represented by yellow and red dots on the map.

Hover mouse over dot to see the name of the station.

Then click to see weather observations and forecasts.

To change the map : click on the green buttons with a black cross to zoom in, on the green button with a dash to zoom out, or on the green arrows for adjacent maps.


METAR-TAF: